SBI275 EDDF-DTTA

Flight info

Callsign SBI275
Flight time N/A
Altitude 33000
Route ANEKI2L/18 ANEKI Y163 NATOR N850 TRA M858 TORTU A9 CORSI M858 RAMEN M732 CAR M733 OSMAR
Aircraft A321/M-VGD/A

Departure

Time 2026-04-14 17:06
Airport Frankfurt Main Airport (EDDF)

Arrival

Time N/A
Airport Tunis Carthage International Airport (DTTA)
Time Latitude Longitude Altitude Speed Heading
2026-04-14 16:06 50.04578 8.56627 367 ft 0 kts 114°
2026-04-14 16:50 50.04579 8.56625 367 ft 1 kts 114°
2026-04-14 16:51 50.04586 8.56604 367 ft 2 kts 116°
2026-04-14 16:51 50.04592 8.56583 366 ft 2 kts 113°
2026-04-14 16:51 50.04598 8.56562 366 ft 2 kts 115°
2026-04-14 16:51 50.04606 8.56536 366 ft 2 kts 122°
2026-04-14 16:52 50.04619 8.56516 366 ft 2 kts 153°
2026-04-14 16:52 50.04636 8.56509 366 ft 2 kts 179°
2026-04-14 16:52 50.04650 8.56512 366 ft 1 kts 200°
2026-04-14 16:52 50.04656 8.56516 366 ft 1 kts 206°
2026-04-14 16:53 50.04658 8.56517 366 ft 0 kts 205°
2026-04-14 16:56 50.04656 8.56516 366 ft 3 kts 205°
2026-04-14 16:56 50.04618 8.56489 366 ft 7 kts 204°
2026-04-14 16:56 50.04571 8.56458 365 ft 8 kts 204°
2026-04-14 16:57 50.04521 8.56405 364 ft 9 kts 234°
2026-04-14 16:57 50.04498 8.56314 363 ft 10 kts 251°
2026-04-14 16:57 50.04475 8.56212 362 ft 10 kts 251°
2026-04-14 16:57 50.04447 8.56103 362 ft 9 kts 249°
2026-04-14 16:58 50.04412 8.56041 361 ft 7 kts 199°
2026-04-14 16:58 50.04361 8.56046 360 ft 8 kts 163°
2026-04-14 16:58 50.04310 8.56087 359 ft 9 kts 133°
2026-04-14 16:58 50.04288 8.56185 359 ft 9 kts 112°
2026-04-14 16:59 50.04230 8.56246 358 ft 11 kts 160°
2026-04-14 16:59 50.04156 8.56279 356 ft 10 kts 183°
2026-04-14 16:59 50.04107 8.56196 354 ft 12 kts 249°
2026-04-14 16:59 50.04074 8.56062 351 ft 14 kts 251°
2026-04-14 17:00 50.04040 8.55914 350 ft 15 kts 250°
2026-04-14 17:00 50.04001 8.55753 348 ft 16 kts 249°
2026-04-14 17:00 50.03964 8.55604 348 ft 15 kts 250°
2026-04-14 17:00 50.03928 8.55451 348 ft 15 kts 250°
2026-04-14 17:01 50.03892 8.55300 348 ft 15 kts 250°
2026-04-14 17:01 50.03856 8.55152 347 ft 15 kts 250°
2026-04-14 17:01 50.03816 8.54980 343 ft 17 kts 250°
2026-04-14 17:01 50.03775 8.54806 342 ft 17 kts 250°
2026-04-14 17:02 50.03733 8.54636 338 ft 19 kts 250°
2026-04-14 17:02 50.03689 8.54454 337 ft 18 kts 250°
2026-04-14 17:02 50.03644 8.54263 338 ft 17 kts 250°
2026-04-14 17:02 50.03605 8.54100 340 ft 15 kts 250°
2026-04-14 17:03 50.03570 8.53951 340 ft 14 kts 250°
2026-04-14 17:03 50.03535 8.53805 341 ft 17 kts 250°
2026-04-14 17:03 50.03480 8.53574 342 ft 23 kts 250°
2026-04-14 17:03 50.03428 8.53358 339 ft 23 kts 250°
2026-04-14 17:04 50.03368 8.53106 335 ft 23 kts 250°
2026-04-14 17:04 50.03313 8.52881 336 ft 21 kts 250°
2026-04-14 17:04 50.03269 8.52692 335 ft 17 kts 249°
2026-04-14 17:04 50.03177 8.52600 334 ft 16 kts 186°
2026-04-14 17:05 50.03148 8.52599 333 ft 0 kts 180°
2026-04-14 17:05 50.02996 8.52602 330 ft 60 kts 180°
2026-04-14 17:05 50.02327 8.52609 327 ft 132 kts 180°
2026-04-14 17:05 50.01226 8.52616 456 ft 176 kts 179°
2026-04-14 17:06 50.00020 8.52641 1147 ft 177 kts 177°
2026-04-14 17:06 49.98811 8.52718 1903 ft 178 kts 176°
2026-04-14 17:06 49.97597 8.52809 2497 ft 174 kts 177°
2026-04-14 17:06 49.96405 8.52903 2928 ft 175 kts 177°
2026-04-14 17:07 49.95203 8.52986 3354 ft 176 kts 176°
2026-04-14 17:07 49.93949 8.53078 3648 ft 187 kts 178°
2026-04-14 17:07 49.92622 8.53173 3912 ft 200 kts 178°
2026-04-14 17:07 49.91207 8.53274 4180 ft 213 kts 178°
2026-04-14 17:08 49.89831 8.53362 4425 ft 226 kts 178°
2026-04-14 17:08 49.88538 8.53448 4595 ft 242 kts 177°
2026-04-14 17:08 49.84829 8.53709 5881 ft 249 kts 178°
2026-04-14 17:09 49.83088 8.53834 6477 ft 252 kts 179°
2026-04-14 17:09 49.81357 8.53953 7054 ft 255 kts 179°
2026-04-14 17:09 49.79639 8.54064 7868 ft 249 kts 179°
2026-04-14 17:09 49.77958 8.54104 8494 ft 251 kts 184°
2026-04-14 17:10 49.76328 8.53943 8888 ft 261 kts 187°
2026-04-14 17:10 49.74865 8.53752 9200 ft 270 kts 187°
2026-04-14 17:10 49.73270 8.53534 9719 ft 272 kts 188°
2026-04-14 17:10 49.71597 8.53310 10260 ft 274 kts 188°
2026-04-14 17:11 49.69740 8.53059 10676 ft 283 kts 188°
2026-04-14 17:11 49.67765 8.52791 10931 ft 298 kts 189°
2026-04-14 17:11 49.65676 8.52506 11188 ft 312 kts 188°
2026-04-14 17:11 49.63483 8.52211 11438 ft 326 kts 188°
2026-04-14 17:12 49.61990 8.52011 11598 ft 334 kts 188°
2026-04-14 17:12 49.60579 8.51823 11743 ft 342 kts 188°
2026-04-14 17:12 49.58260 8.51516 11964 ft 355 kts 188°
2026-04-14 17:12 49.55783 8.51190 12240 ft 365 kts 188°
2026-04-14 17:13 49.53338 8.50872 12712 ft 369 kts 189°
2026-04-14 17:13 49.50805 8.50544 13258 ft 370 kts 189°
2026-04-14 17:13 49.48341 8.50223 13750 ft 373 kts 189°
2026-04-14 17:13 49.45763 8.49886 14241 ft 375 kts 189°
2026-04-14 17:14 49.43193 8.49550 14722 ft 378 kts 189°
2026-04-14 17:14 49.40690 8.49222 15171 ft 380 kts 190°
2026-04-14 17:14 49.38151 8.48889 15614 ft 382 kts 190°
2026-04-14 17:14 49.35494 8.48542 16065 ft 385 kts 190°
2026-04-14 17:15 49.33340 8.48261 16419 ft 387 kts 190°
2026-04-14 17:15 49.30991 8.47955 16796 ft 389 kts 190°